Regional Weather Roundup
Issued by NWS

Home | Current Version | Previous Version | Text Only | Print | Product List | Glossary On
Versions: 1 2 3 4 5 6 7 8 9 10 11 12 13 14 15 16 17 18 19 20 21 22 23 24 25 26 27 28 29 30 31 32 33 34 35 36 37 38 39 40 41 42 43 44 45 46 47 48 49 50
000
ASUS43 KMKX 161020
RWRWI

WISCONSIN REGIONAL WEATHER ROUNDUP
NATIONAL WEATHER SERVICE MILWAUKEE/SULLIVAN WI
400 AM CST SAT DEC 16 2017

NOTE: "FAIR" INDICATES FEW OR NO CLOUDS BELOW 12,000 FEET WITH NO
SIGNIFICANT WEATHER AND/OR OBSTRUCTIONS TO VISIBILITY.

WIZ001-002-006>008-014>016-023>028-161100-
NORTHWEST WISCONSIN

CITY           SKY/WX    TMP DP  RH WIND       PRES   REMARKS
SUPERIOR ARPT  CLOUDY    14  11  87 E3        29.83R
ASHLAND        CLOUDY    11   5  77 SE3       29.85R
HAYWARD        CLOUDY    14   9  80 NE6       29.77S WCI   5
SIREN          CLOUDY    19  16  86 E6        29.75F WCI  11
CUMBERLAND     CLOUDY    19  18  93 NE8       29.72S WCI   9
RICE LAKE      CLOUDY    21  18  90 CALM      29.75R
CHETEK         CLOUDY    19  17  88 E3        29.74S
LADYSMITH      CLOUDY    18  15  87 NE8       29.78R WCI   8
EAU CLAIRE     CLOUDY    23  20  88 NE8       29.72F WCI  14
MENOMONIE      CLOUDY    25  23  91 E7        29.71F WCI  17
NEW RICHMOND   CLOUDY    24  21  89 E6        29.71R WCI  17
OSCEOLA        CLOUDY    25  22  87 CALM      29.75R
$$

WIZ003>005-009-010-017-018-161100-
NORTH CENTRAL WISCONSIN

CITY           SKY/WX    TMP DP  RH WIND       PRES   REMARKS
MANITOWISH WTR CLOUDY     7   5  91 SE5       29.79R WCI  -2
ARBOR VITAE    CLOUDY    11   7  84 CALM      29.79R
WOODRUFF       CLOUDY    11   7  84 CALM      29.79R
RHINELANDER    LGT SNOW   9   6  88 E6        29.79R FOG     WCI  -1
EAGLE RIVER    CLOUDY     7   3  85 CALM      29.78S
LAND O LAKES   CLOUDY    10   7  87 CALM      29.81R
PHILLIPS       LGT SNOW  11   9  89 E6        29.77R WCI   2
TOMAHAWK       LGT SNOW  11   8  87 CALM      29.80R
MEDFORD        FLURRIES  15  12  88 E10       29.74S WCI   2
MERRILL        LGT SNOW  13  10  87 E6        29.80R WCI   4
$$

WIZ029-030-035-036-043>047-161100-
CENTRAL WISCONSIN

CITY           SKY/WX    TMP DP  RH WIND       PRES   REMARKS
WAUSAU         LGT SNOW  14  10  84 E9        29.78S FOG     WCI   2
MOSINEE        LGT SNOW  16  14  93 E9        29.79S WCI   4
MARSHFIELD     LGT SNOW  19  16  88 E10       29.74F FOG     WCI   7
STEVENS POINT  LGT SNOW  15  13  92 E9        29.80S WCI   3
WAUPACA        LGT SNOW  19  15  82 NE7       29.83S WCI  10
WAUTOMA        FLURRIES  19  16  88 E8        29.81S WCI   9
WISC RAPIDS    LGT SNOW  19  15  84 E10       29.79S FOG     WCI   7
CAMP DOUGLAS   CLOUDY    27  26  96 E6        29.75R WCI  21
$$

WIZ011>013-019>022-031-037>040-048>050-161100-
NORTHEAST WISCONSIN

CITY           SKY/WX    TMP DP  RH WIND       PRES   REMARKS
ANTIGO         LGT SNOW  11   7  87 E8        29.80R WCI  -1
SHAWANO        LGT SNOW  16  12  85 E6        29.86F WCI   7
OCONTO         CLOUDY    14   7  75 CALM      29.88S
STURGEON BAY   FLURRIES  18  10  71 NE6       29.87S WCI  10
GREEN BAY      FLURRIES  18  13  80 E7        29.86F WCI   9
MANITOWOC      LGT SNOW  18  14  86 N5        29.86F FOG     WCI  11
APPLETON       FLURRIES  18  12  79 E10       29.81F WCI   6
CLINTONVILLE   FLURRIES  16  10  79 NE6       29.85S WCI   7
OSHKOSH        LGT SNOW  19  16  88 NE10      29.82S FOG     WCI   7
$$

WIZ032>034-041-042-053>061-161100-
SOUTHWEST WISCONSIN

CITY           SKY/WX    TMP DP  RH WIND       PRES   REMARKS
LA CROSSE      CLOUDY    32  28  85 E6        29.71F WCI  26
SPARTA         CLOUDY    29  27  92 E7        29.74S WCI  22
VIROQUA        CLOUDY    30  28  93 CALM      29.70F
BOSCOBEL       CLOUDY    34  25  69 CALM      29.75R
PRAIRIE DU CHI CLOUDY    36  22  57 SW3       29.73S
PLATTEVILLE    CLOUDY    34  26  71 S7        29.74S WCI  28
$$

WIZ056-057-062-063-064-067-068-161100-
SOUTH CENTRAL WISCONSIN

CITY           SKY/WX    TMP DP  RH WIND       PRES   REMARKS
REEDSBURG      CLOUDY    29  28  97 E3        29.74S
BARABOO/DELLS  CLOUDY    28  27  95 NE3       29.75R
LONE ROCK      CLOUDY    36  25  64 CALM      29.75S
MINERAL POINT  MOCLDY    34  28  80 S7        29.73F WCI  28
MADISON        CLOUDY    33  24  69 S3        29.77S
MIDDLETON      CLOUDY    36  24  63 CALM      29.76R
WATERTOWN      CLOUDY    32  26  80 CALM      29.77S
MONROE         CLOUDY    32  23  69 S9        29.75S WCI  24
JANESVILLE     CLOUDY    34  23  64 SW7       29.77S WCI  28
$$

WIZ051-052-058>065-066-070>072-161100-
SOUTHEAST WISCONSIN

CITY           SKY/WX    TMP DP  RH WIND       PRES   REMARKS
MILWAUKEE      CLOUDY    35  25  66 SW3       29.79F
WAUKESHA       CLOUDY    28  27  93 CALM      29.79F
MILWAUKEE/TIMM CLOUDY    30  27  86 CALM      29.80F
RACINE         CLOUDY    35  24  64 SW7       29.81F WCI  29
BURLINGTON     CLOUDY    33  26  73 SW8       29.78F WCI  26
KENOSHA        CLOUDY    35  23  61 SW6       29.80F WCI  30
FOND DU LAC    FLURRIES  24  19  81 NE6       29.81S WCI  17
SHEBOYGAN      LGT SNOW  19  17  92 NE10      29.83F FOG     WCI   7
WEST BEND      CLOUDY    25  25 100 NE5       29.80F WCI  19
JUNEAU         CLOUDY    28  26  92 E6        29.78S WCI  22
$$

LSZ147-162-161100-
LAKE SUPERIOR

STATION/POSITION TIME  TEMP    WIND        PRES    WAVE
                       AIR SEA DIR/SP/G            HT/PER
                 (UTC) (F)     (DEG/KT/KT) (MB)    (FT/S)
DEVILS ISLAND    1000   22      70/ 18/ 21 1011.9R
SAXON HARBOR     0940   14                 1010.5R
$$

LMZ867-665-643>646-161100-
LAKE MICHIGAN

STATION/POSITION TIME  TEMP    WIND        PRES    WAVE
                       AIR SEA DIR/SP/G            HT/PER
                 (UTC) (F)     (DEG/KT/KT) (MB)    (FT/S)
NORTHPORT PIER   1005   20      30/  4/  9 1011.9
KEWAUNEE LAKESHO 0954   18     350/  5/  7 1010.9R
SHEBOYGAN LAKESH 1000   27      30/ 11/ 12 1011.5R
PORT WASHINGTON  0930   28     360/  4/  8 1011.2S
MILWAUKEE LAKESH 1000   34      40/  4/  5   N/A
KENOSHA   LAKESH 1000   37     220/  9/ 12 1009.5
$$

TC  - TEMPERATURE IN CELSIUS
VSB - VISIBILITY IN STATUTE MILES
WCI - WIND CHILL INDEX
HX  - HEAT INDEX




USA.gov is the U.S. government's official web portal to all federal, state and local government web resources and services.